,,PA_Meas_PMT16A,,PR_Meas_QMR101_102,,RH_Meas_QMH101,,SR_Meas_QMS101,,TA_Meas_QMH101,,GenWind,,GenWind,
time,status,PA,status,PR,status,RH,status,SR,status,TA,status,DirAvg,status,SpdAvg,
2013-12-02, 06:43:04,VALID,915.66,VALID,0,VALID,97.473,VALID,35.9928,VALID,18.8463,VALID,143,VALID,0,
2013-12-02, 06:44:04,VALID,915.67,VALID,0,VALID,97.4654,VALID,38.3565,VALID,18.8268,VALID,131,VALID,0,
2013-12-02, 06:45:04,VALID,915.641,VALID,0,VALID,97.4654,VALID,39.7532,VALID,18.8268,VALID,126,VALID,0,
2013-12-02, 06:46:04,VALID,915.647,VALID,0,VALID,97.473,VALID,41.0425,VALID,18.8073,VALID,142,VALID,0,
2013-12-02, 06:47:04,VALID,915.634,VALID,0,VALID,97.4806,VALID,42.6541,VALID,18.8268,VALID,149,VALID,0,
2013-12-02, 06:48:04,VALID,915.664,VALID,0,VALID,97.4806,VALID,44.2658,VALID,18.8268,VALID,141,VALID,0,
2013-12-02, 06:49:04,VALID,915.686,VALID,0,VALID,97.4806,VALID,45.8774,VALID,18.8073,VALID,129,VALID,0,
2013-12-02, 06:50:04,VALID,915.688,VALID,0,VALID,97.4806,VALID,46.8443,VALID,18.8073,VALID,119,VALID,0,
2013-12-02, 06:51:04,VALID,915.726,VALID,0,VALID,97.473,VALID,21.918,VALID,18.8268,VALID,119,VALID,0,
2013-12-02, 06:52:04,VALID,915.753,VALID,0,VALID,97.4959,VALID,49.1006,VALID,18.7864,VALID,102,VALID,0,
2013-12-02, 06:53:04,VALID,915.753,VALID,0,VALID,97.4577,VALID,50.4973,VALID,18.8073,VALID,108,VALID,0,
2013-12-02, 06:54:04,VALID,915.79,VALID,0,VALID,97.4882,VALID,51.4643,VALID,18.7864,VALID,114,VALID,0,
2013-12-02, 06:55:04,VALID,915.802,VALID,0,VALID,97.473,VALID,52.9685,VALID,18.8059,VALID,131,VALID,0,
2013-12-02, 06:56:04,VALID,915.817,VALID,0,VALID,97.4654,VALID,54.1503,VALID,18.8254,VALID,131,VALID,0,
2013-12-02, 06:57:04,VALID,915.774,VALID,0,VALID,97.4806,VALID,55.6545,VALID,18.8853,VALID,151,VALID,0,
2013-12-02, 06:58:04,VALID,915.803,VALID,0,VALID,97.473,VALID,56.4066,VALID,18.9048,VALID,148,VALID,0,
2013-12-02, 06:59:04,VALID,915.809,VALID,0,VALID,97.473,VALID,56.8364,VALID,18.9438,VALID,139,VALID,0,
2013-12-02, 07:00:04,VALID,915.805,VALID,0,VALID,97.4806,VALID,58.8778,VALID,18.9438,VALID,143,VALID,0,
2013-12-02, 07:01:04,VALID,915.824,VALID,0,VALID,97.4654,VALID,60.7043,VALID,18.9438,VALID,143,VALID,0,
2013-12-02, 07:02:04,VALID,915.825,VALID,0,VALID,97.473,VALID,62.6382,VALID,18.9633,VALID,138,VALID,0,
2013-12-02, 07:03:04,VALID,915.867,VALID,0,VALID,97.4501,VALID,64.4647,VALID,18.9828,VALID,138,VALID,0,
2013-12-02, 07:04:04,VALID,915.823,VALID,0,VALID,97.4654,VALID,65.1093,VALID,18.9828,VALID,153,VALID,0,
2013-12-02, 07:05:04,VALID,915.829,VALID,0,VALID,97.4577,VALID,66.1837,VALID,18.9828,VALID,150,VALID,0,
2013-12-02, 07:06:04,VALID,915.854,VALID,0,VALID,97.4806,VALID,67.5805,VALID,18.9424,VALID,155,VALID,0,
2013-12-02, 07:07:04,VALID,915.821,VALID,0,VALID,97.4654,VALID,66.0763,VALID,18.9828,VALID,159,VALID,0,
2013-12-02, 07:08:04,VALID,915.858,VALID,0,VALID,97.4425,VALID,68.5475,VALID,18.9814,VALID,160,VALID,0,
2013-12-02, 07:09:04,VALID,915.835,VALID,0,VALID,97.4577,VALID,71.3409,VALID,19.0023,VALID,171,VALID,0,
2013-12-02, 07:10:04,VALID,915.877,VALID,0,VALID,97.473,VALID,72.5228,VALID,18.9814,VALID,155,VALID,0,
2013-12-02, 07:11:04,VALID,915.898,VALID,0,VALID,97.4577,VALID,76.4981,VALID,19.0218,VALID,168,VALID,0,
2013-12-02, 07:12:04,VALID,915.903,VALID,0,VALID,97.4654,VALID,78.3246,VALID,19.0413,VALID,163,VALID,0,
2013-12-02, 07:13:04,VALID,915.938,VALID,0,VALID,97.4425,VALID,80.0437,VALID,19.0608,VALID,141,VALID,0,
2013-12-02, 07:14:04,VALID,915.953,VALID,0,VALID,97.4577,VALID,81.4404,VALID,19.0803,VALID,146,VALID,0,
2013-12-02, 07:15:04,VALID,915.936,VALID,0,VALID,97.4501,VALID,82.9446,VALID,19.0803,VALID,147,VALID,0,
2013-12-02, 07:16:04,VALID,915.987,VALID,0,VALID,97.4425,VALID,84.2339,VALID,19.0998,VALID,161,VALID,0,
2013-12-02, 07:17:04,VALID,915.984,VALID,0,VALID,97.4273,VALID,85.6306,VALID,19.1207,VALID,155,VALID,0,
2013-12-02, 07:18:04,VALID,916.029,VALID,0,VALID,97.4349,VALID,86.5976,VALID,19.0983,VALID,149,VALID,0,
2013-12-02, 07:19:04,VALID,916.052,VALID,0,VALID,97.4273,VALID,86.9199,VALID,19.1388,VALID,153,VALID,0,
2013-12-02, 07:20:04,VALID,916.074,VALID,0,VALID,97.4425,VALID,86.5976,VALID,19.1373,VALID,142,VALID,0,
2013-12-02, 07:21:04,VALID,916.095,VALID,0,VALID,97.4196,VALID,88.2092,VALID,19.1778,VALID,156,VALID,0,
2013-12-02, 07:22:04,VALID,916.095,VALID,0,VALID,97.4349,VALID,89.1762,VALID,19.1778,VALID,148,VALID,0,
2013-12-02, 07:23:04,VALID,916.091,VALID,0,VALID,97.4349,VALID,91.9696,VALID,19.1568,VALID,140,VALID,0,
2013-12-02, 07:24:04,VALID,916.121,VALID,0,VALID,97.4501,VALID,92.8292,VALID,19.1568,VALID,166,VALID,0,
2013-12-02, 07:25:04,VALID,916.1,VALID,0,VALID,97.4501,VALID,94.6557,VALID,19.1568,VALID,152,VALID,0,
2013-12-02, 07:26:04,VALID,916.134,VALID,0,VALID,97.4349,VALID,95.9449,VALID,19.1778,VALID,149,VALID,0,
2013-12-02, 07:27:04,VALID,916.149,VALID,0,VALID,97.4501,VALID,97.5566,VALID,19.1763,VALID,153,VALID,0,
2013-12-02, 07:28:04,VALID,916.152,VALID,0,VALID,97.4349,VALID,99.0607,VALID,19.1958,VALID,158,VALID,0,
2013-12-02, 07:29:04,VALID,916.155,VALID,0,VALID,97.4349,VALID,100.35,VALID,19.2363,VALID,153,VALID,0,
2013-12-02, 07:30:04,VALID,916.208,VALID,0,VALID,97.4196,VALID,101.854,VALID,19.2558,VALID,155,VALID,0,
2013-12-02, 07:31:04,VALID,916.208,VALID,0,VALID,97.4196,VALID,103.573,VALID,19.2363,VALID,142,VALID,0,
2013-12-02, 07:32:04,VALID,916.212,VALID,0,VALID,97.412,VALID,105.077,VALID,19.2363,VALID,148,VALID,0,
2013-12-02, 07:33:04,VALID,916.2,VALID,0,VALID,97.4196,VALID,106.367,VALID,19.2363,VALID,155,VALID,0,
2013-12-02, 07:34:04,VALID,916.213,VALID,0,VALID,97.4273,VALID,107.763,VALID,19.2153,VALID,157,VALID,0,
2013-12-02, 07:35:04,VALID,916.229,VALID,0,VALID,97.4349,VALID,109.16,VALID,19.2348,VALID,154,VALID,0,
2013-12-02, 07:36:04,VALID,916.229,VALID,0,VALID,97.4196,VALID,110.342,VALID,19.2543,VALID,147,VALID,0,
2013-12-02, 07:37:04,VALID,916.209,VALID,0,VALID,97.4196,VALID,111.631,VALID,19.2948,VALID,129,VALID,0,
2013-12-02, 07:38:04,VALID,916.225,VALID,0,VALID,97.4273,VALID,113.028,VALID,19.3143,VALID,153,VALID,0,
2013-12-02, 07:39:04,VALID,916.189,VALID,0,VALID,97.412,VALID,114.532,VALID,19.3143,VALID,161,VALID,0,
2013-12-02, 07:40:04,VALID,916.203,VALID,0,VALID,97.3968,VALID,116.144,VALID,19.3128,VALID,150,VALID,0,
2013-12-02, 07:41:04,VALID,916.197,VALID,0,VALID,97.4196,VALID,117.648,VALID,19.3338,VALID,160,VALID,0,
2013-12-02, 07:42:04,VALID,916.216,VALID,0,VALID,97.4044,VALID,119.475,VALID,19.3533,VALID,180,VALID,0,
2013-12-02, 07:43:04,VALID,916.263,VALID,0,VALID,97.4044,VALID,121.086,VALID,19.3518,VALID,137,VALID,0,
2013-12-02, 07:44:04,VALID,916.259,VALID,0,VALID,97.412,VALID,122.698,VALID,19.3323,VALID,140,VALID,0,
2013-12-02, 07:45:04,VALID,916.334,VALID,0,VALID,97.4044,VALID,124.524,VALID,19.3923,VALID,140,VALID,0,
2013-12-02, 07:46:04,VALID,916.329,VALID,0,VALID,97.412,VALID,126.351,VALID,19.3728,VALID,136,VALID,0,
2013-12-02, 07:47:04,VALID,916.352,VALID,0,VALID,97.3968,VALID,127.962,VALID,19.4118,VALID,136,VALID,0,
2013-12-02, 07:48:04,VALID,916.431,VALID,0,VALID,97.3891,VALID,129.252,VALID,19.4103,VALID,127,VALID,0,
2013-12-02, 07:49:04,VALID,916.442,VALID,0,VALID,97.3891,VALID,130.648,VALID,19.4508,VALID,190,VALID,0,
2013-12-02, 07:50:04,VALID,916.459,VALID,0,VALID,97.3815,VALID,132.045,VALID,19.4298,VALID,186,VALID,0,
2013-12-02, 07:51:04,VALID,916.481,VALID,0,VALID,97.3815,VALID,133.442,VALID,19.4898,VALID,151,VALID,0,
2013-12-02, 07:52:04,VALID,916.521,VALID,0,VALID,97.3586,VALID,134.946,VALID,19.4883,VALID,137,VALID,0,
2013-12-02, 07:53:04,VALID,916.519,VALID,0,VALID,97.3663,VALID,136.128,VALID,19.4883,VALID,153,VALID,0,
2013-12-02, 07:54:04,VALID,916.561,VALID,0,VALID,97.351,VALID,137.525,VALID,19.5483,VALID,156,VALID,0,
2013-12-02, 07:55:04,VALID,916.603,VALID,0,VALID,97.3815,VALID,139.244,VALID,19.5093,VALID,170,VALID,0,
2013-12-02, 07:56:04,VALID,916.615,VALID,0,VALID,97.351,VALID,140.748,VALID,19.5273,VALID,170,VALID,0,
2013-12-02, 07:57:04,VALID,916.601,VALID,0,VALID,97.3434,VALID,142.574,VALID,19.5273,VALID,175,VALID,0,
2013-12-02, 07:58:04,VALID,916.607,VALID,0,VALID,97.3434,VALID,144.186,VALID,19.5498,VALID,165,VALID,0,
2013-12-02, 07:59:04,VALID,916.609,VALID,0,VALID,97.3358,VALID,146.12,VALID,19.5678,VALID,170,VALID,0,
2013-12-02, 08:00:04,VALID,916.608,VALID,0,VALID,97.3053,VALID,148.269,VALID,19.5873,VALID,168,VALID,0,
2013-12-02, 08:01:04,VALID,916.607,VALID,0,VALID,97.3053,VALID,150.632,VALID,19.6458,VALID,181,VALID,0,
2013-12-02, 08:02:04,VALID,916.618,VALID,0,VALID,97.3053,VALID,152.459,VALID,19.6458,VALID,168,VALID,0,
2013-12-02, 08:03:04,VALID,916.612,VALID,0,VALID,97.2748,VALID,154.393,VALID,19.6653,VALID,169,VALID,0,
2013-12-02, 08:04:04,VALID,916.611,VALID,0,VALID,97.2824,VALID,156.649,VALID,19.6848,VALID,149,VALID,0,
2013-12-02, 08:05:04,VALID,916.657,VALID,0,VALID,97.2595,VALID,159.443,VALID,19.7238,VALID,151,VALID,0,
2013-12-02, 08:06:04,VALID,916.673,VALID,0,VALID,97.2367,VALID,161.162,VALID,19.7238,VALID,141,VALID,0,
2013-12-02, 08:07:04,VALID,916.688,VALID,0,VALID,97.1986,VALID,161.806,VALID,19.7223,VALID,136,VALID,0,
2013-12-02, 08:08:04,VALID,916.729,VALID,0,VALID,97.1986,VALID,163.311,VALID,19.8018,VALID,132,VALID,0,
2013-12-02, 08:09:04,VALID,916.74,VALID,0,VALID,97.1604,VALID,165.137,VALID,19.8018,VALID,128,VALID,0,
2013-12-02, 08:10:04,VALID,916.755,VALID,0,VALID,97.1376,VALID,167.286,VALID,19.8603,VALID,137,VALID,0,
2013-12-02, 08:11:04,VALID,916.743,VALID,0,VALID,97.0918,VALID,169.65,VALID,19.8993,VALID,141,VALID,0,
2013-12-02, 08:12:04,VALID,916.792,VALID,0,VALID,97.0842,VALID,171.476,VALID,19.9188,VALID,134,VALID,0,
2013-12-02, 08:13:04,VALID,916.756,VALID,0,VALID,97.0156,VALID,173.732,VALID,19.9773,VALID,162,VALID,0,
2013-12-02, 08:14:04,VALID,916.785,VALID,0,VALID,96.9927,VALID,175.559,VALID,19.9773,VALID,191,VALID,0,
2013-12-02, 08:15:04,VALID,916.77,VALID,0,VALID,96.9394,VALID,177.063,VALID,20.0358,VALID,235,VALID,0,
2013-12-02, 08:16:04,VALID,916.786,VALID,0,VALID,96.9012,VALID,178.137,VALID,20.0553,VALID,167,VALID,0,
2013-12-02, 08:17:04,VALID,916.836,VALID,0,VALID,96.8479,VALID,179.104,VALID,20.1334,VALID,173,VALID,0,
2013-12-02, 08:18:04,VALID,916.794,VALID,0,VALID,96.8021,VALID,180.823,VALID,20.1513,VALID,127,VALID,0,
2013-12-02, 08:19:04,VALID,916.816,VALID,0,VALID,96.7411,VALID,181.361,VALID,20.1919,VALID,180,VALID,0,
2013-12-02, 08:20:04,VALID,916.813,VALID,0,VALID,96.6344,VALID,182.865,VALID,20.2114,VALID,179,VALID,0,
2013-12-02, 08:21:04,VALID,916.769,VALID,0,VALID,96.4896,VALID,185.229,VALID,20.2114,VALID,149,VALID,0,
2013-12-02, 08:22:04,VALID,916.785,VALID,0,VALID,96.4133,VALID,189.096,VALID,20.2309,VALID,163,VALID,0,
2013-12-02, 08:23:04,VALID,916.779,VALID,0,VALID,96.1923,VALID,191.245,VALID,20.1919,VALID,153,VALID,0,
2013-12-02, 08:24:04,VALID,916.777,VALID,0,VALID,96.0627,VALID,193.609,VALID,20.2098,VALID,125,VALID,0,
2013-12-02, 08:25:04,VALID,916.788,VALID,0,VALID,95.9864,VALID,194.468,VALID,20.2894,VALID,122,VALID,0,
2013-12-02, 08:26:04,VALID,916.8,VALID,0,VALID,95.9407,VALID,196.188,VALID,20.3674,VALID,105,VALID,0,
2013-12-02, 08:27:04,VALID,916.805,VALID,0,VALID,95.7425,VALID,197.907,VALID,20.3464,VALID,167,VALID,0,
2013-12-02, 08:28:04,VALID,916.835,VALID,0,VALID,95.59,VALID,199.196,VALID,20.4259,VALID,155,VALID,0,
2013-12-02, 08:29:04,VALID,916.828,VALID,0,VALID,95.0335,VALID,200.808,VALID,20.3269,VALID,131,VALID,0,
2013-12-02, 08:30:04,VALID,916.847,VALID,0,VALID,94.8048,VALID,201.774,VALID,20.4064,VALID,154,VALID,0,
2013-12-02, 08:31:04,VALID,916.843,VALID,0,VALID,94.1568,VALID,203.171,VALID,20.4064,VALID,170,VALID,0,
2013-12-02, 08:32:04,VALID,916.85,VALID,0,VALID,93.4478,VALID,205.32,VALID,20.3869,VALID,146,VALID,0,
2013-12-02, 08:33:04,VALID,916.843,VALID,0,VALID,93.1048,VALID,207.254,VALID,20.3659,VALID,147,VALID,0,
2013-12-02, 08:34:04,VALID,916.839,VALID,0,VALID,92.8532,VALID,209.295,VALID,20.3659,VALID,151,VALID,0,
2013-12-02, 08:35:04,VALID,916.9,VALID,0,VALID,93.1124,VALID,211.767,VALID,20.4244,VALID,171,VALID,0,
2013-12-02, 08:36:04,VALID,916.888,VALID,0,VALID,92.9599,VALID,214.882,VALID,20.4439,VALID,156,VALID,0,
2013-12-02, 08:37:04,VALID,916.898,VALID,0,VALID,92.4949,VALID,217.891,VALID,20.4454,VALID,142,VALID,0,
2013-12-02, 08:38:04,VALID,916.875,VALID,0,VALID,92.4568,VALID,220.792,VALID,20.504,VALID,142,VALID,0,
2013-12-02, 08:39:04,VALID,916.883,VALID,0,VALID,92.3806,VALID,223.478,VALID,20.5024,VALID,164,VALID,0,
2013-12-02, 08:40:04,VALID,916.874,VALID,0,VALID,92.129,VALID,227.023,VALID,20.4829,VALID,160,VALID,0,
2013-12-02, 08:41:04,VALID,916.923,VALID,0,VALID,91.9918,VALID,229.387,VALID,20.5219,VALID,181,VALID,0,
2013-12-02, 08:42:04,VALID,916.917,VALID,0,VALID,91.8774,VALID,231.965,VALID,20.5414,VALID,143,VALID,0,
2013-12-02, 08:43:04,VALID,916.935,VALID,0,VALID,92.007,VALID,235.189,VALID,20.5804,VALID,142,VALID,0,
2013-12-02, 08:44:04,VALID,916.95,VALID,0,VALID,92.2814,VALID,238.304,VALID,20.6194,VALID,150,VALID,0,
2013-12-02, 08:45:04,VALID,916.964,VALID,0,VALID,91.7554,VALID,240.131,VALID,20.639,VALID,146,VALID,0,
2013-12-02, 08:46:04,VALID,916.975,VALID,0,VALID,91.3895,VALID,241.528,VALID,20.678,VALID,144,VALID,0,
2013-12-02, 08:47:04,VALID,916.995,VALID,0,VALID,91.6106,VALID,244.321,VALID,20.7365,VALID,148,VALID,0,
2013-12-02, 08:48:04,VALID,916.966,VALID,0,VALID,91.4734,VALID,247.007,VALID,20.7755,VALID,167,VALID,0,
2013-12-02, 08:49:04,VALID,916.935,VALID,0,VALID,91.542,VALID,243.032,VALID,20.834,VALID,177,VALID,0,
2013-12-02, 08:50:04,VALID,916.926,VALID,0,VALID,91.1303,VALID,244.644,VALID,20.8535,VALID,177,VALID,0,
2013-12-02, 08:51:04,VALID,916.947,VALID,0,VALID,90.9245,VALID,246.04,VALID,20.8535,VALID,172,VALID,0,
2013-12-02, 08:52:04,VALID,916.918,VALID,0,VALID,91.1303,VALID,246.792,VALID,20.873,VALID,156,VALID,0,
2013-12-02, 08:53:04,VALID,916.957,VALID,0,VALID,91.3819,VALID,247.437,VALID,20.8925,VALID,170,VALID,0,
2013-12-02, 08:54:04,VALID,916.944,VALID,0,VALID,91.077,VALID,248.619,VALID,20.873,VALID,153,VALID,0,
2013-12-02, 08:55:04,VALID,916.937,VALID,0,VALID,90.6043,VALID,250.445,VALID,20.873,VALID,142,VALID,0,
2013-12-02, 08:56:04,VALID,916.967,VALID,0,VALID,90.6653,VALID,251.627,VALID,20.8925,VALID,135,VALID,0,
2013-12-02, 08:57:04,VALID,917.018,VALID,0,VALID,90.6958,VALID,252.594,VALID,20.912,VALID,127,VALID,0,
2013-12-02, 08:58:04,VALID,917.011,VALID,0,VALID,91.5877,VALID,253.454,VALID,20.9901,VALID,133,VALID,0,
2013-12-02, 08:59:04,VALID,917.05,VALID,0,VALID,91.3514,VALID,253.024,VALID,20.9885,VALID,155,VALID,0,
2013-12-02, 09:00:04,VALID,917.082,VALID,0,VALID,91.1837,VALID,252.809,VALID,21.0291,VALID,160,VALID,0,
2013-12-02, 09:01:04,VALID,917.064,VALID,0,VALID,91.2828,VALID,252.379,VALID,21.0665,VALID,166,VALID,0,
2013-12-02, 09:02:04,VALID,917.057,VALID,0,VALID,91.0846,VALID,253.346,VALID,21.1266,VALID,170,VALID,0,
2013-12-02, 09:03:04,VALID,917.063,VALID,0,VALID,90.5891,VALID,254.528,VALID,21.1445,VALID,152,VALID,0,
2013-12-02, 09:04:04,VALID,917.101,VALID,0,VALID,90.6958,VALID,255.71,VALID,21.1836,VALID,162,VALID,0,
2013-12-02, 09:05:04,VALID,917.067,VALID,0,VALID,90.7644,VALID,257.214,VALID,21.2421,VALID,159,VALID,0,
2013-12-02, 09:06:04,VALID,917.078,VALID,0,VALID,90.6043,VALID,258.503,VALID,21.2811,VALID,139,VALID,0,
2013-12-02, 09:07:04,VALID,917.061,VALID,0,VALID,89.4303,VALID,260.33,VALID,21.3217,VALID,164,VALID,0,
2013-12-02, 09:08:04,VALID,917.07,VALID,0,VALID,89.1559,VALID,262.909,VALID,21.3396,VALID,145,VALID,0,
2013-12-02, 09:09:04,VALID,917.057,VALID,0,VALID,89.2931,VALID,264.95,VALID,21.3591,VALID,129,VALID,0,
2013-12-02, 09:10:04,VALID,917.063,VALID,0,VALID,89.3998,VALID,266.347,VALID,21.3786,VALID,165,VALID,0,
2013-12-02, 09:11:04,VALID,917.083,VALID,0,VALID,89.3236,VALID,267.636,VALID,21.3981,VALID,158,VALID,0,
2013-12-02, 09:12:04,VALID,917.099,VALID,0,VALID,89.5218,VALID,270.107,VALID,21.4746,VALID,129,VALID,0,
2013-12-02, 09:13:04,VALID,917.087,VALID,0,VALID,89.7962,VALID,275.479,VALID,21.5331,VALID,154,VALID,0,
2013-12-02, 09:14:04,VALID,917.076,VALID,0,VALID,90.1469,VALID,278.273,VALID,21.6729,VALID,169,VALID,0,
2013-12-02, 09:15:04,VALID,917.085,VALID,0,VALID,89.0491,VALID,280.099,VALID,21.7298,VALID,166,VALID,0,
2013-12-02, 09:16:04,VALID,917.079,VALID,0,VALID,88.4088,VALID,280.636,VALID,21.7103,VALID,195,VALID,0,
2013-12-02, 09:17:04,VALID,917.074,VALID,0,VALID,87.6312,VALID,280.851,VALID,21.7315,VALID,156,VALID,0,
2013-12-02, 09:18:04,VALID,917.088,VALID,0,VALID,87.6007,VALID,282.248,VALID,21.6713,VALID,187,VALID,0,
2013-12-02, 09:19:04,VALID,917.09,VALID,0,VALID,87.2881,VALID,275.801,VALID,21.6518,VALID,148,VALID,0,
2013-12-02, 09:20:04,VALID,917.061,VALID,0,VALID,87.3415,VALID,283.645,VALID,21.6924,VALID,179,VALID,0,
2013-12-02, 09:21:04,VALID,917.057,VALID,0,VALID,87.8218,VALID,284.612,VALID,21.6713,VALID,172,VALID,0,
2013-12-02, 09:22:04,VALID,917.047,VALID,0,VALID,87.5244,VALID,285.579,VALID,21.7298,VALID,170,VALID,0,
2013-12-02, 09:23:04,VALID,917.057,VALID,0,VALID,87.3034,VALID,286.76,VALID,21.7298,VALID,154,VALID,0,
2013-12-02, 09:24:04,VALID,917.057,VALID,0,VALID,86.8231,VALID,287.835,VALID,21.6908,VALID,152,VALID,0,
2013-12-02, 09:25:04,VALID,917.033,VALID,0,VALID,87.4177,VALID,288.587,VALID,21.7103,VALID,162,VALID,0,
2013-12-02, 09:26:04,VALID,917.015,VALID,0,VALID,87.5473,VALID,289.661,VALID,21.7103,VALID,142,VALID,0,
2013-12-02, 09:27:04,VALID,917.04,VALID,0,VALID,87.1738,VALID,291.273,VALID,21.7103,VALID,140,VALID,0,
2013-12-02, 09:28:04,VALID,917.044,VALID,0,VALID,87.5092,VALID,293.852,VALID,21.8095,VALID,126,VALID,0,
2013-12-02, 09:29:04,VALID,917.011,VALID,0,VALID,87.3262,VALID,296.215,VALID,21.79,VALID,156,VALID,0,
2013-12-02, 09:30:04,VALID,917.061,VALID,0,VALID,86.9756,VALID,299.331,VALID,21.7265,VALID,142,VALID,0,
2013-12-02, 09:31:04,VALID,917.054,VALID,0,VALID,87.0975,VALID,302.017,VALID,21.8095,VALID,154,VALID,0,
2013-12-02, 09:32:04,VALID,917.028,VALID,0,VALID,86.6096,VALID,304.488,VALID,21.746,VALID,135,VALID,0,
2013-12-02, 09:33:04,VALID,917.056,VALID,0,VALID,87.8904,VALID,306.53,VALID,21.8876,VALID,137,VALID,0,
2013-12-02, 09:34:04,VALID,917.035,VALID,0,VALID,87.5092,VALID,308.356,VALID,21.9233,VALID,123,VALID,0,
2013-12-02, 09:35:04,VALID,917.042,VALID,0,VALID,87.9209,VALID,310.397,VALID,22.0013,VALID,149,VALID,0,
2013-12-02, 09:36:04,VALID,917.053,VALID,0,VALID,86.9908,VALID,312.224,VALID,22.0013,VALID,143,VALID,0,
2013-12-02, 09:37:04,VALID,917.032,VALID,0,VALID,86.5868,VALID,314.803,VALID,22.0403,VALID,145,VALID,0,
2013-12-02, 09:38:04,VALID,917.057,VALID,0,VALID,86.9679,VALID,316.951,VALID,22.1022,VALID,151,VALID,0,
2013-12-02, 09:39:04,VALID,917.063,VALID,0,VALID,87.3186,VALID,320.175,VALID,22.1201,VALID,138,VALID,0,
2013-12-02, 09:40:04,VALID,917.072,VALID,0,VALID,87.1966,VALID,322.323,VALID,22.1981,VALID,148,VALID,0,
2013-12-02, 09:41:04,VALID,917.043,VALID,0,VALID,86.8002,VALID,323.828,VALID,22.2354,VALID,163,VALID,0,
2013-12-02, 09:42:04,VALID,917.041,VALID,0,VALID,85.0011,VALID,325.439,VALID,22.1964,VALID,148,VALID,0,
2013-12-02, 09:43:04,VALID,917.047,VALID,0,VALID,86.4114,VALID,325.654,VALID,22.1981,VALID,141,VALID,0,
2013-12-02, 09:44:04,VALID,917.045,VALID,0,VALID,85.0621,VALID,323.935,VALID,22.1786,VALID,138,VALID,0,
2013-12-02, 09:45:04,VALID,917.027,VALID,0,VALID,86.8307,VALID,323.076,VALID,22.2371,VALID,139,VALID,0,
2013-12-02, 09:46:04,VALID,917.039,VALID,0,VALID,86.602,VALID,323.076,VALID,22.3347,VALID,160,VALID,0,
2013-12-02, 09:47:04,VALID,917.044,VALID,0,VALID,85.3365,VALID,324.257,VALID,22.3933,VALID,146,VALID,0,
2013-12-02, 09:48:04,VALID,917.064,VALID,0,VALID,85.2603,VALID,324.795,VALID,22.4128,VALID,144,VALID,0,
2013-12-02, 09:49:04,VALID,917.035,VALID,0,VALID,85.7939,VALID,324.365,VALID,22.4323,VALID,108,VALID,0,
2013-12-02, 09:50:04,VALID,917.066,VALID,0,VALID,87.4634,VALID,324.15,VALID,22.5299,VALID,106,VALID,0,
2013-12-02, 09:51:04,VALID,917.054,VALID,0,VALID,87.1966,VALID,324.15,VALID,22.5884,VALID,120,VALID,0,
2013-12-02, 09:52:04,VALID,917.045,VALID,0,VALID,86.8231,VALID,323.398,VALID,22.6079,VALID,124,VALID,0,
2013-12-02, 09:53:04,VALID,917.071,VALID,0,VALID,86.4495,VALID,322.431,VALID,22.6274,VALID,123,VALID,0,
2013-12-02, 09:54:04,VALID,917.063,VALID,0,VALID,86.8002,VALID,321.571,VALID,22.6843,VALID,139,VALID,0,
2013-12-02, 09:55:04,VALID,917.105,VALID,0,VALID,84.5666,VALID,320.282,VALID,22.7055,VALID,121,VALID,0,
2013-12-02, 09:56:04,VALID,917.137,VALID,0,VALID,85.4128,VALID,318.778,VALID,22.725,VALID,137,VALID,0,
2013-12-02, 09:57:04,VALID,917.133,VALID,0,VALID,85.8015,VALID,317.703,VALID,22.7641,VALID,84,VALID,0,
2013-12-02, 09:58:04,VALID,917.119,VALID,0,VALID,82.7827,VALID,316.844,VALID,22.7055,VALID,122,VALID,0,
2013-12-02, 09:59:04,VALID,917.168,VALID,0,VALID,83.6822,VALID,316.414,VALID,22.7055,VALID,113,VALID,0,
2013-12-02, 10:00:04,VALID,917.12,VALID,0,VALID,84.132,VALID,314.695,VALID,22.7233,VALID,158,VALID,0,
2013-12-02, 10:01:04,VALID,917.139,VALID,0,VALID,85.0849,VALID,312.976,VALID,22.8209,VALID,128,VALID,0,
2013-12-02, 10:02:04,VALID,917.139,VALID,0,VALID,83.0647,VALID,311.794,VALID,22.8404,VALID,130,VALID,0,
2013-12-02, 10:03:04,VALID,917.136,VALID,0,VALID,82.3786,VALID,310.827,VALID,22.7641,VALID,120,VALID,0,
2013-12-02, 10:04:04,VALID,917.088,VALID,0,VALID,83.8881,VALID,309.323,VALID,22.6647,VALID,119,VALID,0,
2013-12-02, 10:05:04,VALID,917.077,VALID,0,VALID,85.9693,VALID,307.711,VALID,22.725,VALID,112,VALID,0,
2013-12-02, 10:06:04,VALID,917.049,VALID,0,VALID,82.8055,VALID,307.282,VALID,22.6825,VALID,109,VALID,0,
2013-12-02, 10:07:04,VALID,917.036,VALID,0,VALID,83.2934,VALID,306.744,VALID,22.7428,VALID,127,VALID,0,
2013-12-02, 10:08:04,VALID,917.013,VALID,0,VALID,82.7522,VALID,306.744,VALID,22.7233,VALID,128,VALID,0,
2013-12-02, 10:09:04,VALID,917.005,VALID,0,VALID,83.4383,VALID,305.348,VALID,22.6843,VALID,121,VALID,0,
2013-12-02, 10:10:04,VALID,917.019,VALID,0,VALID,85.1383,VALID,303.951,VALID,22.7428,VALID,180,VALID,0,
2013-12-02, 10:11:04,VALID,917.035,VALID,0,VALID,84.7495,VALID,299.761,VALID,22.7606,VALID,173,VALID,0,
2013-12-02, 10:12:04,VALID,917.052,VALID,0,VALID,84.1091,VALID,302.769,VALID,22.8599,VALID,149,VALID,0,
2013-12-02, 10:13:04,VALID,917.043,VALID,0,VALID,81.9975,VALID,302.232,VALID,22.8404,VALID,95,VALID,0,
2013-12-02, 10:14:04,VALID,917.067,VALID,0,VALID,83.3621,VALID,302.232,VALID,22.8794,VALID,148,VALID,0,
2013-12-02, 10:15:04,VALID,917.082,VALID,0,VALID,82.6912,VALID,301.587,VALID,22.8582,VALID,139,VALID,0,
2013-12-02, 10:16:04,VALID,917.061,VALID,0,VALID,81.7459,VALID,302.662,VALID,22.8794,VALID,164,VALID,0,
2013-12-02, 10:17:04,VALID,917.082,VALID,0,VALID,81.7611,VALID,302.877,VALID,22.8955,VALID,142,VALID,0,
2013-12-02, 10:18:04,VALID,917.052,VALID,0,VALID,82.028,VALID,303.414,VALID,23.016,VALID,119,VALID,0,
2013-12-02, 10:19:04,VALID,917.042,VALID,0,VALID,81.5401,VALID,303.521,VALID,23.0763,VALID,142,VALID,0,
2013-12-02, 10:20:04,VALID,917.029,VALID,0,VALID,82.0508,VALID,302.232,VALID,23.0763,VALID,123,VALID,0,
2013-12-02, 10:21:04,VALID,917.073,VALID,0,VALID,80.3965,VALID,304.488,VALID,22.9735,VALID,178,VALID,0,
2013-12-02, 10:22:04,VALID,917.05,VALID,0,VALID,80.206,VALID,305.133,VALID,23.0551,VALID,167,VALID,0,
2013-12-02, 10:23:04,VALID,917.025,VALID,0,VALID,83.0876,VALID,306.959,VALID,23.0728,VALID,112,VALID,0,
2013-12-02, 10:24:04,VALID,917.012,VALID,0,VALID,80.9454,VALID,308.034,VALID,23.1314,VALID,168,VALID,0,
2013-12-02, 10:25:04,VALID,917.006,VALID,0,VALID,79.6266,VALID,310.075,VALID,23.0728,VALID,147,VALID,0,
2013-12-02, 10:26:04,VALID,917.041,VALID,0,VALID,81.3037,VALID,311.257,VALID,23.0959,VALID,130,VALID,0,
2013-12-02, 10:27:04,VALID,917.027,VALID,0,VALID,82.2185,VALID,312.117,VALID,23.0906,VALID,108,VALID,0,
2013-12-02, 10:28:04,VALID,917.027,VALID,0,VALID,81.4486,VALID,312.869,VALID,23.1331,VALID,158,VALID,0,
2013-12-02, 10:29:04,VALID,917.035,VALID,0,VALID,80.5871,VALID,313.728,VALID,23.1314,VALID,170,VALID,0,